Weather History for Lawton, OK

Change the Weather History Date:

Thursday, May 9, 2013

  Actual Average Record
Temperature  
Mean Temperature 70 °F -  
Max Temperature 77 °F 81 °F 97 °F (2011)
Min Temperature 64 °F 55 °F 43 °F (1961)
Cooling Degree Days 6    
Growing Degree Days 20 (Base 50)    
Moisture  
Dew Point 60 °F    
Average Humidity 75    
Maximum Humidity 88    
Minimum Humidity 51    
Precipitation  
Precipitation 0.30 in - - ()
Sea Level Pressure  
Sea Level Pressure 29.88 in    
Wind  
Wind Speed 8 mph (SE)    
Max Wind Speed 23 mph    
Max Gust Speed 34 mph    
Visibility 9 miles    
Events Rain , Thunderstorm    
Averages and records for this station are not official NWS values.
T = Trace of Precipitation, MM = Missing Value Source: NWS Daily Summary

Daily Weather History Graph

Daily Weather History Graph

Search for Another Location

Airport:

Trip Planner

Search our weather history database for the weather conditions in past years. The results will help you decide how hot, cold, wet, or windy it might be!

Date:

Astronomy

May. 09, 2013 Rise Set
Actual Time 6:35 AM CDT 8:24 PM CDT
Civil Twilight 6:08 AM CDT 8:52 PM CDT
Nautical Twilight 5:35 AM CDT 9:25 PM CDT
Astronomical Twilight 4:59 AM CDT 10:01 PM CDT
Moon 6:19 AM CDT (5/9) 8:21 PM CDT (5/9)
Length of Visible Light 14h 44m
Length of Day
13h 49m
Waning Crescent, 0% of the Moon is Illuminated
May 9
Waning Crescent
May 9
New
May 17
First Quarter
May 24
Full
May 31
Last Quarter

Hourly Weather History & Observations

Time (CDT) Temp. Dew Point Humidity Pressure Visibility Wind Dir Wind Speed Gust Speed Precip Events Conditions
12:53 AM 66.0 °F 60.1 °F 81% 29.82 in 10.0 mi SE 4.6 mph - N/A   Clear
1:53 AM 68.0 °F 60.1 °F 76% 29.80 in 10.0 mi SSE 8.1 mph - N/A   Clear
2:53 AM 64.0 °F 59.0 °F 84% 29.81 in 10.0 mi East 6.9 mph - N/A   Clear
3:53 AM 64.0 °F 59.0 °F 84% 29.81 in 10.0 mi Calm Calm - N/A   Clear
4:53 AM 64.9 °F 59.0 °F 81% 29.81 in 10.0 mi SE 6.9 mph - N/A   Mostly Cloudy
5:53 AM 64.9 °F 57.9 °F 78% 29.82 in 10.0 mi SE 5.8 mph - N/A   Mostly Cloudy
6:53 AM 64.9 °F 57.9 °F 78% 29.83 in 10.0 mi SE 9.2 mph - N/A   Partly Cloudy
7:53 AM 64.9 °F 57.9 °F 78% 29.86 in 10.0 mi ESE 8.1 mph - N/A   Overcast
8:06 AM 64.4 °F 57.2 °F 77% 29.89 in 10.0 mi ESE 8.1 mph - N/A   Overcast
8:25 AM 66.2 °F 57.2 °F 73% 29.87 in 10.0 mi ESE 11.5 mph - N/A   Mostly Cloudy
8:53 AM 66.9 °F 57.9 °F 73% 29.86 in 10.0 mi ESE 11.5 mph - N/A   Mostly Cloudy
9:35 AM 69.8 °F 59.0 °F 68% 29.90 in 10.0 mi SE 8.1 mph - N/A   Mostly Cloudy
9:53 AM 70.0 °F 60.1 °F 71% 29.88 in 10.0 mi SE 8.1 mph - N/A   Overcast
10:53 AM 73.0 °F 61.0 °F 66% 29.87 in 10.0 mi ESE 12.7 mph - N/A   Overcast
12:30 PM 73.4 °F 62.6 °F 69% 29.92 in 10.0 mi SSE 16.1 mph 23.0 mph N/A   Overcast
12:53 PM 73.9 °F 63.0 °F 68% 29.90 in 10.0 mi SSE 11.5 mph - N/A   Overcast
1:23 PM 75.2 °F 64.4 °F 69% 29.92 in 10.0 mi South 11.5 mph - N/A   Mostly Cloudy
1:53 PM 77.0 °F 64.0 °F 64% 29.88 in 10.0 mi SSE 10.4 mph 17.3 mph N/A   Scattered Clouds
2:34 PM 75.2 °F 64.4 °F 69% 29.91 in 10.0 mi Calm Calm - N/A Thunderstorm Thunderstorm
2:53 PM 73.9 °F 64.9 °F 73% 29.87 in 4.0 mi Calm Calm - 0.01 in Rain , Thunderstorm Thunderstorms and Rain
3:04 PM 69.8 °F 62.6 °F 78% 29.89 in 2.5 mi WSW 11.5 mph 19.6 mph 0.05 in Rain , Thunderstorm Heavy Thunderstorms and Rain
3:13 PM 66.2 °F 55.4 °F 68% 29.89 in 1.0 mi South 15.0 mph 20.7 mph 0.22 in Rain , Thunderstorm Heavy Thunderstorms and Rain
3:22 PM 64.4 °F 57.2 °F 77% 29.89 in 4.0 mi SSE 23.0 mph 34.5 mph 0.23 in Rain , Thunderstorm Light Thunderstorms and Rain
3:29 PM 64.4 °F 55.4 °F 73% 29.88 in 10.0 mi South 12.7 mph 33.4 mph 0.23 in Rain , Thunderstorm Light Thunderstorms and Rain
3:53 PM 66.9 °F 57.0 °F 70% 29.88 in 10.0 mi SSE 19.6 mph 32.2 mph 0.23 in Thunderstorm Thunderstorm
4:16 PM 66.2 °F 57.2 °F 73% 29.89 in 10.0 mi SSE 12.7 mph 19.6 mph 0.00 in Rain Light Rain
4:53 PM 68.0 °F 59.0 °F 73% 29.86 in 10.0 mi SSE 3.5 mph - 0.03 in   Partly Cloudy
5:53 PM 72.0 °F 63.0 °F 73% 29.84 in 10.0 mi ESE 5.8 mph - N/A   Mostly Cloudy
6:53 PM 71.1 °F 64.0 °F 78% 29.83 in 10.0 mi East 4.6 mph - N/A   Clear
7:53 PM 70.0 °F 61.0 °F 73% 29.87 in 10.0 mi NNE 8.1 mph - N/A   Mostly Cloudy
8:50 PM 69.8 °F 64.4 °F 83% 29.92 in 7.0 mi ENE 8.1 mph - 0.00 in Rain , Thunderstorm Light Rain
8:53 PM 69.1 °F 64.9 °F 87% 29.90 in 7.0 mi East 8.1 mph - 0.00 in Rain , Thunderstorm Light Rain
9:43 PM 66.2 °F 62.6 °F 88% 29.96 in 10.0 mi Variable 5.8 mph - 0.00 in Rain Light Rain
9:53 PM 68.0 °F 60.1 °F 76% 29.93 in 8.0 mi South 8.1 mph - 0.01 in Rain Light Rain
10:53 PM 70.0 °F 51.1 °F 51% 29.91 in 10.0 mi North 9.2 mph 21.9 mph 0.02 in   Scattered Clouds
11:53 PM 64.9 °F 59.0 °F 81% 29.94 in 10.0 mi NNE 5.8 mph - N/A   Scattered Clouds